www.pogodaiklimat.ru

Погода и климат >> Архив погоды >> Великобритания >> Wick


ПОГОДА в Wick

  • Прогноз погоды в Wick
  • Монитор погоды в Wick
  • Климат города

АРХИВ ПОГОДЫ в Wick

Время (UTC), дата Ветер
(напр.,м/с)
 
Видим.   Явления Облачность Т
(С)
Тd
(С)
f
(%)
Тe
(С)
Тes
(С)
Комфортность P
(гПа)
Po
(гПа)
Тmin
(С)
Tmax
(С)
R
(мм)
R24
(мм)
S
(см)
10 14.10 ЮЗ 3 35 км н/о +8.0 +5.7 85 +5 +5 1006.6 1002.2
11 14.10 ЮЗ 3 35 км н/о +8.5 +6.0 84 +6 +6 1006.8 1002.4
12 14.10 ЮЗ 3 40 км н/о +9.1 +6.3 83 +7 +7 1007.0 1002.6 0.2
14 14.10 Ю 4 50 км н/о +11.3 +6.7 73 +9 +9 1007.4 1003.0
13 14.10 Ю 4 35 км н/о +9.9 +6.6 80 +7 +7 1007.0 1002.6
15 14.10 Ю 4 50 км н/о +11.1 +5.3 67 +9 +9 1007.5 1003.2
16 14.10 Ю 4 50 км н/о +10.5 +5.0 69 +8 +8 1007.8 1003.4
17 14.10 Ю 4 50 км н/о +9.2 +5.9 80 +7 +7 1008.1 1003.7
18 14.10 Ю 3 45 км н/о +8.2 +5.6 84 +5 +5 1008.8 1004.4 +11.7 0.2
20 14.10 Ю 3 40 км н/о +8.4 +5.7 83 +6 +6 1009.8 1005.4
19 14.10 Ю 4 45 км н/о +8.6 +5.7 82 +6 +6 1009.3 1004.9
21 14.10 Ю 4 40 км н/о +8.4 +6.2 86 +5 +5 1010.2 1005.8
22 14.10 Ю 3 30 км н/о +8.4 +5.8 84 +6 +6 1010.3 1005.9
23 14.10 Ю 3 40 км н/о +7.8 +5.2 84 +5 +5 1010.4 1006.0
00 15.10 ЮЗ 3 50 км н/о +7.2 +5.1 86 +5 +5 1010.9 1006.4
02 15.10 Ю 5 50 км н/о +7.8 +5.6 86 +4 +4 1011.4 1007.0
01 15.10 Ю 2 45 км н/о +6.7 +5.0 89 +4 +4 1011.1 1006.7
03 15.10 Ю 5 45 км н/о +7.8 +5.2 84 +4 +4 1011.2 1006.8
04 15.10 Ю 5 40 км н/о +7.8 +5.2 84 +4 +4 1011.0 1006.6
05 15.10 Ю 4 50 км н/о +8.0 +5.7 85 +5 +5 1011.2 1006.8
06 15.10 Ю 5 50 км н/о +8.2 +5.8 85 +4 +4 1011.5 1007.1 +5.6
08 15.10 Ю 6 35 км н/о +8.6 +6.3 85 +5 +5 1012.4 1008.0
07 15.10 Ю 4 45 км н/о +8.0 +5.9 87 +5 +5 1011.8 1007.4
09 15.10 Ю 5 45 км н/о +8.8 +6.0 83 +5 +5 1012.8 1008.4
10 15.10 Ю 7 35 км н/о +10.4 +6.9 79 +7 +7 1012.9 1008.6
11 15.10 Ю 7 35 км н/о +11.3 +7.6 78 +8 +8 1013.3 1008.9
12 15.10 Ю 7 40 км н/о +11.2 +6.9 75 +8 +8 1013.1 1008.7
14 15.10 Ю 6 40 км н/о +12.4 +6.6 68 +10 +10 1013.0 1008.7
13 15.10 Ю 6 30 км н/о +12.6 +6.7 67 +10 +10 1013.0 1008.7
15 15.10 Ю 5 30 км н/о +11.9 +6.8 71 +10 +10 1013.2 1008.8
16 15.10 Ю 5 35 км н/о +11.7 +7.2 74 +9 +9 1013.2 1008.8
17 15.10 Ю 4 30 км н/о +11.0 +7.3 78 +9 +9 1013.4 1009.0
18 15.10 Ю 3 40 км н/о +10.7 +7.8 82 +9 +9 1013.8 1009.4 +12.7
20 15.10 Ю 2 50 км н/о +10.3 +6.8 79 +9 +9 1013.7 1009.3
19 15.10 ЮЗ 2 40 км н/о +10.1 +7.2 82 +9 +9 1014.0 1009.6
21 15.10 Ю 3 35 км н/о +11.0 +8.7 86 +9 +9 1013.5 1009.1
22 15.10 ЮВ 4 45 км н/о +11.0 +8.5 85 +9 +9 1013.3 1008.9
23 15.10 Ю 5 35 км н/о +11.0 +8.5 85 +8 +8 1012.5 1008.1
00 16.10 Ю 5 40 км н/о +11.0 +8.4 84 +8 +8 1011.7 1007.3
02 16.10 Ю 5 45 км н/о +10.1 +6.4 78 +7 +7 1010.7 1006.3
01 16.10 Ю 6 45 км н/о +10.5 +7.7 83 +7 +7 1010.9 1006.6
03 16.10 Ю 6 40 км н/о +10.1 +6.2 77 +7 +7 1010.1 1005.7
04 16.10 ЮВ 7 45 км н/о +10.0 +5.8 75 +6 +6 1008.6 1004.3
05 16.10 ЮВ 7 45 км н/о +10.3 +6.0 75 +7 +7 1007.8 1003.4
06 16.10 ЮВ 10
{15}
30 км н/о +9.8 +6.1 78 +5 +5 1006.5 1002.1 +9.8
08 16.10 Ю 8-13
{15}
35 км н/о +10.0 +6.1 77 +6 +6 1006.5 1002.2
07 16.10 ЮВ 10
{15}
30 км н/о +9.9 +6.3 78 +5 +5 1006.0 1001.6
09 16.10 Ю 10
{18}
23 км н/о +10.1 +6.9 81 +6 +6 1005.1 1000.8
10 16.10 ЮВ 8
{16}
15 км слаб. морось с дождем н/о +10.3 +7.9 85 +6 +6 1004.5 1000.2
11 16.10 ЮВ 9-14
{15}
21 км в посл. час дождь н/о +10.9 +8.2 83 +7 +7 1003.6 999.3
12 16.10 0
{16}
н/о
14 16.10 0 н/о
13 16.10 0 в посл. час морось н/о
16 16.10 Ю 8 21 км в посл. час туман н/о +12.8 +9.5 80
17 16.10 Ю 7 21 км н/о +12.1 +9.8 86
18 16.10 Ю 8 25 км н/о +11.9 +8.7 81
20 16.10 Ю 7 19 км н/о +11.9 +9.2 84 +9 +9 1003.6 999.3
19 16.10 Ю 8
{13}
16 км н/о +11.9 +9.1 83
21 16.10 Ю 6 18 км н/о +11.5 +9.1 85 +9 +9 1004.1 999.8
22 16.10 Ю 5 24 км н/о +11.3 +9.0 86 +9 +9 1004.4 1000.1
23 16.10 Ю 4 19 км н/о +10.4 +8.9 90 +8 +8 1004.7 1000.4
00 17.10 Ю 4 28 км н/о +11.1 +9.2 88 +9 +9 1005.3 1001.0
02 17.10 Ю 4 45 км н/о +9.8 +6.8 82 +7 +7 1006.4 1002.0
01 17.10 ЮЗ 2 24 км н/о +8.7 +6.7 87 +7 +7 1006.1 1001.7
03 17.10 З 3 45 км н/о +8.7 +6.9 88 +6 +6 1007.4 1003.0
04 17.10 ЮЗ 5 35 км н/о +8.7 +5.7 81 +5 +5 1007.8 1003.5
05 17.10 ЮЗ 4 30 км н/о +8.5 +4.7 77 +5 +5 1008.6 1004.2
06 17.10 Ю 4 40 км н/о +7.7 +4.5 80 +5 +5 1009.3 1004.9 +7.6
08 17.10 ЮЗ 6 24 км н/о +8.0 +4.4 78 +4 +4 1011.3 1006.9
07 17.10 ЮЗ 5 27 км н/о +7.1 +4.3 82 +3 +3 1010.3 1005.9
09 17.10 ЮЗ 8 28 км н/о +8.9 +4.8 75 +5 +5 1012.3 1007.9
10 17.10 ЮЗ 6 29 км н/о +10.2 +5.5 73 +7 +7 1013.2 1008.8
11 17.10 ЮЗ 8 30 км н/о +11.1 +5.4 68 +8 +8 1013.8 1009.4
12 17.10 ЮЗ 10
{13}
23 км н/о +11.2 +5.1 66 +7 +7 1014.5 1010.1
14 17.10 З 7 35 км н/о +11.7 +4.8 63 +9 +9 1015.7 1011.3
13 17.10 ЮЗ 8
{13}
24 км н/о +11.4 +4.8 64 +8 +8 1015.1 1010.7
15 17.10 З 7 30 км н/о +10.9 +4.9 66 +8 +8 1016.6 1012.2
16 17.10 З 7 30 км н/о +10.3 +4.6 68 +7 +7 1017.2 1012.8
17 17.10 З 5 40 км н/о +9.1 +5.2 77 +6 +6 1018.4 1013.9
18 17.10 ЮЗ 3 30 км н/о +8.8 +4.4 74 +6 +6 1022.6 1015.6 +12.1
20 17.10 ЮЗ 5 30 км н/о +5.8 +3.9 88 +1 +1 1021.4 1016.9
19 17.10 ЮЗ 4 40 км н/о +5.6 +3.1 84 +2 +2 1020.4 1015.9
21 17.10 ЮЗ 6 40 км н/о +6.3 +4.0 85 +2 +2 1021.9 1017.5
22 17.10 ЮЗ 3 35 км н/о +6.2 +3.7 84 +3 +3 1022.4 1017.9
23 17.10 ЮЗ 5 45 км н/о +7.1 +3.8 80 +3 +3 1022.5 1018.1
00 18.10 ЮЗ 7 35 км н/о +7.2 +3.8 79 +2 +2 1022.9 1018.5
02 18.10 ЮЗ 3 25 км н/о +5.6 +2.5 80 +2 +2 1023.5 1019.0
01 18.10 ЮЗ 5 30 км н/о +6.3 +3.6 83 +2 +2 1023.4 1018.9
03 18.10 ЮЗ 3 30 км н/о +6.3 +3.7 83 +3 +3 1024.0 1019.5
04 18.10 Ю 2 35 км н/о +6.0 +3.1 82 +4 +4 1024.3 1019.8
05 18.10 ЮЗ 3 35 км н/о +6.4 +3.1 79 +3 +3 1024.6 1020.1
06 18.10 ЮЗ 4 30 км н/о +6.4 +3.4 81 +3 +3 1025.1 1020.6 0.0
08 18.10 ЮЗ 2 35 км н/о +8.0 +5.6 85 +6 +6 1025.5 1021.0
07 18.10 ЮЗ 4 30 км н/о +7.0 +4.5 84 +4 +4 1025.3 1020.8
09 18.10 ЮЗ 4 25 км н/о +8.8 +5.6 80 +6 +6 1026.0 1021.5
10 18.10 ЮЗ 6 40 км н/о +9.2 +5.7 79 +6 +6 1026.0 1021.6
11 18.10 ЮЗ 5 45 км н/о +11.0 +6.2 72 +8 +8 1025.7 1021.2
12 18.10 Ю 5 25 км н/о +10.5 +5.0 69 +8 +8 1025.6 1021.2
14 18.10 Ю 6 26 км н/о +10.4 +6.1 75 +7 +7 1025.0 1020.6
13 18.10 Ю 5 26 км н/о +10.0 +5.7 75 +7 +7 1025.4 1020.9
15 18.10 Ю 4 30 км н/о +10.5 +6.4 76 +8 +8 1024.4 1020.0
16 18.10 Ю 5 23 км н/о +10.5 +6.0 74 +8 +8 1024.5 1020.1
17 18.10 Ю 4 35 км н/о +9.8 +5.8 76 +7 +7 1024.2 1019.8
18 18.10 Ю 4 26 км н/о +9.7 +6.0 78 +7 +7 1023.9 1019.5 +11.5
20 18.10 Ю 5 35 км н/о +9.5 +6.2 80 +6 +6 1023.0 1018.6
19 18.10 Ю 3 35 км н/о +9.9 +6.5 79 +8 +8 1023.6 1019.1
21 18.10 Ю 4 40 км н/о +9.6 +6.6 82 +7 +7 1022.6 1018.1
22 18.10 Ю 5 40 км н/о +9.4 +6.8 84 +6 +6 1022.0 1017.6
23 18.10 Ю 5 35 км н/о +9.6 +6.0 78 +6 +6 1021.2 1016.8
00 19.10 Ю 9 45 км н/о +9.8 +4.8 71 +6 +6 1019.6 1015.2
02 19.10 Ю 7 40 км н/о +9.9 +5.1 72 +6 +6 1018.5 1014.1
01 19.10 Ю 6 40 км н/о +10.0 +5.4 73 +7 +7 1019.4 1015.0
03 19.10 Ю 9
{13}
35 км н/о +9.8 +4.5 70 +6 +6 1017.5 1013.1
04 19.10 Ю 5 35 км н/о +9.4 +5.0 74 +6 +6 1016.6 1012.2
05 19.10 Ю 7
{13}
35 км н/о +9.4 +5.2 75 +6 +6 1015.9 1011.4
06 19.10 Ю 6 30 км слаб. морось с дождем н/о +9.6 +5.4 75 +6 +6 1015.6 1011.2 +9.2 0.0
08 19.10 Ю 10
{14}
30 км слаб. морось с дождем н/о +10.5 +5.7 72 +6 +6 1014.4 1010.0
07 19.10 Ю 8 30 км в посл. час дождь н/о +9.9 +6.0 77 +6 +6 1015.4 1011.0
09 19.10 Ю 9
{14}
30 км в посл. час дождь н/о +10.6 +6.0 73 +7 +7 1014.3 1009.9
10 19.10 Ю 9
{13}
28 км н/о +10.4 +6.9 79 +6 +6 1014.6 1010.2
11 19.10 ЮЗ 8 45 км н/о +11.3 +7.5 77 +8 +8 1014.8 1010.4
12 19.10 ЮЗ 8
{13}
23 км н/о +12.0 +8.8 81 +9 +9 1015.7 1011.3 0.0
14 19.10 З 11
{15}
22 км дым н/о +11.2 +6.5 73 +7 +7 1017.4 1013.0
13 19.10 З 7 35 км н/о +12.9 +7.4 69 +10 +10 1016.4 1012.1
15 19.10 З 8
{13}
30 км в посл. час дождь н/о +10.3 +7.3 82 +6 +6 1018.1 1013.7
16 19.10 З 5
{13}
20 км в посл. час дождь н/о +9.6 +8.0 90 +6 +6 1019.1 1014.7
17 19.10 З 4 22 км н/о +7.6 +6.0 90 +4 +4 1019.9 1015.4
18 19.10 ЮЗ 4 26 км н/о +7.4 +5.7 89 +4 +4 1021.1 1016.7 +13.2 0.2
20 19.10 ЮЗ 2 23 км н/о +7.1 +4.6 84 +5 +5 1021.4 1017.0
19 19.10 Ю 3 25 км н/о +7.0 +5.2 88 +4 +4 1021.4 1016.9
21 19.10 ЮЗ 4 17 км н/о +6.6 +4.8 88 +3 +3 1022.1 1017.7
22 19.10 ЮЗ 4 21 км н/о +8.3 +5.3 81 +5 +5 1022.4 1018.0
23 19.10 ЮЗ 5 23 км н/о +8.2 +6.1 87 +5 +5 1022.6 1018.1
00 20.10 Ю 2 26 км н/о +8.3 +5.6 83 +6 +6 1022.5 1018.0
02 20.10 Ю 5 35 км н/о +8.0 +5.9 87 +4 +4 1021.5 1017.0
01 20.10 Ю 3 30 км н/о +8.1 +5.5 84 +5 +5 1022.0 1017.6
03 20.10 Ю 3 21 км н/о +8.7 +6.7 87 +6 +6 1021.0 1016.5
04 20.10 Ю 2 25 км н/о +8.5 +5.8 83 +7 +7 1020.8 1016.4
05 20.10 Ю 4 22 км н/о +9.2 +6.6 84 +6 +6 1019.9 1015.5
06 20.10 Ю 7 23 км н/о +9.8 +6.0 77 +6 +6 1019.3 1014.9 +6.1
08 20.10 Ю 6 27 км в посл. час дождь н/о +11.0 +8.5 85 +8 +8 1018.3 1013.9
07 20.10 Ю 6 21 км слаб. ливневой дождь н/о +10.2 +7.9 86 +7 +7 1018.5 1014.1
09 20.10 Ю 6 35 км н/о +11.5 +9.4 87 +9 +9 1018.5 1014.2
10 20.10 Ю 6 25 км н/о +12.2 +10.3 88 +9 +9 1018.2 1013.8
11 20.10 Ю 5 45 км н/о +13.0 +10.6 85 +11 +11 1017.8 1013.4
12 20.10 Ю 4 45 км н/о +15.9 +11.6 76 +15 +15 1017.5 1013.2 0.0
14 20.10 Ю 10
{16}
29 км н/о +14.8 +11.7 82 +12 +12 1016.6 1012.3
13 20.10 Ю 10
{14}
18 км н/о +15.6 +11.2 75 +13 +13 1017.0 1012.7
15 20.10 Ю 3
{14}
16 км н/о +13.8 +11.3 85 +13 +13 1016.8 1012.4
16 20.10 ЮЗ 10
{13}
45 км н/о +16.3 +12.7 79 +14 +14 1016.7 1012.4
17 20.10 Ю 8
{13}
40 км н/о +15.5 +12.3 81 +14 +14 1017.1 1012.7
18 20.10 ЮЗ 9
{13}
45 км н/о +15.0 +12.7 86 +13 +13 1017.6 1013.3 +17.0 0.0
20 20.10 ЮЗ 8 30 км н/о +14.8 +12.6 87 +13 +13 1017.5 1013.2
19 20.10 ЮВ 4 23 км н/о +13.9 +11.9 88 +13 +13 1018.3 1013.9
21 20.10 Ю 9
{13}
50 км н/о +14.7 +12.7 88 +12 +12 1017.5 1013.2
22 20.10 Ю 5 45 км н/о +14.7 +12.9 89 +13 +13 1017.3 1013.0
23 20.10 ЮЗ 5 45 км в посл. час дождь н/о +14.2 +12.8 91 +12 +12 1016.9 1012.5
00 21.10 ЮЗ 5 8000 м в посл. час дождь н/о +13.8 +13.2 96 +12 +12 1017.1 1012.8 0.0
02 21.10 З 4 2400 м сильн. морось н/о +11.4 +11.1 98 +9 +9 1016.7 1012.3
01 21.10 ЮЗ 6 5000 м слаб. ливневой дождь н/о +13.6 +13.0 96 +11 +11 1016.4 1012.1
03 21.10 СЗ 3 3000 м сильн. морось н/о +10.8 +10.8 100 +9 +9 1016.8 1012.4
04 21.10 З 2 4200 м слаб. морось н/о +10.8 +10.8 100 +9 +9 1016.4 1012.0
05 21.10 З 6 5000 м слаб. морось н/о +9.2 +9.0 99 +5 +5 1016.8 1012.4
06 21.10 З 4 40 км слаб. морось с дождем н/о +9.1 +9.0 99 +6 +6 1016.6 1012.1 +9.0 3
08 21.10 Ю 2 27 км в посл. час дождь н/о +8.5 +6.5 87 +7 +7 1017.6 1013.2
07 21.10 Ю 2 10 км слаб. ливневой дождь н/о +9.2 +7.7 90 +7 +7 1016.9 1012.5
09 21.10 Ю 3 35 км в посл. час дождь н/о +8.3 +5.8 84 +6 +6 1017.5 1013.0
10 21.10 ЮЗ 7 23 км слаб. морось с дождем н/о +9.1 +6.2 82 +5 +5 1017.1 1012.7

 

Местоположение метеостанции Wick (Великобритания): широта 58.45 долгота -3.08 высота над уровнем моря 36 м.

В архиве по умолчанию представлена погода в Wick за последнюю неделю. Архивные данные за месяц целиком и за предыдущие месяцы, начиная с января 2011 года, Вы можете получить, выбрав интересующий диапазон дат из раскрывающегося списка и нажав кнопку "Ввод!".


*Определитесь, кто Вы:
робот инопланетянин человек

Внимание! Время в таблицах - всемирное. Для получения местного времени необходимо прибавить поправку, которая в Wick равна 0 ч.

Смотрите также архив погоды в соседних городах и на ближайших метеорологических станциях:

Погода в Kirkwall (Великобритания) (57 км)
Погода в Altnaharra (Великобритания) (81 км)
Погода в Lossiemouth (Великобритания) (82 км)
Погода в Tain Range (Великобритания) (87 км)
Погода в Kinloss (Великобритания) (94 км)
Погода в Sule Skerry (Великобритания) (103 км)
Погода в Loch Glascarnoch (Великобритания) (133 км)
Погода в Aviemore (Великобритания) (146 км)
Погода в Fair Isle (Великобритания) (146 км)
Погода в Aberdeen (Великобритания) (148 км)

Пояснения к столбцам:

Ветер - указаны скорость ветра в м/с - средняя за 10 мин, порывы в срок и между сроками (в фигурных скобках) и направление, откуда дует ветер: С - северный, СВ - северо-восточный, В - восточный, ЮВ - юго-восточный, Ю - южный, ЮЗ - юго-западный, З - западный, СЗ - северо-западный.
Видимость - горизонтальная дальность видимости в метрах или километрах. При видимости от 1 до 10 км при отсутствии осадков обычно наблюдается дымка, при ухудшении видимости до 1 км и менее - туман. В сухую погоду видимость может ухудшаться дымом, пылью или мглою.
Явления - указаны атмосферные явления, наблюдавшиеся в срок или в последний час перед сроком; фигурными скобками обозначены явления, наблюдавшиеся между сроками (за 1-3 часа до срока); квадратными скобками обозначены град или гололедные отложения с указанием их диаметра в мм.
Облачность - указаны через наклонную черту общая и нижняя облачность в баллах и высота нижней границы облаков в метрах; квадратными скобками обозначены формы облаков: Ci - перистые, Cs - перисто-слоистые, Cc - перисто-кучевые, Ac - высококучевые, As - высокослоистые, Sc - слоисто-кучевые, Ns - слоисто-дождевые, Cu - кучевые, Cb - кучево-дождевые. Подробнее классификацию облаков см. в Атласе облаков (PDF).
T - Температура воздуха - температура, измеренная на высоте 2 м над землей.
Td - Температура точки росы - температура, при понижении до которой содержащийся в воздухе водяной пар достигнет насыщения.
f - Относительная влажность воздуха - влажноcть воздуха, измеренная на высоте 2 м над землей.
Te - Эффективная температура - температура, которую ощущает одетый по сезону человек в тени. Характеристика душности погоды. При расчете учитывается влияние влажности воздуха и скорости ветра на теплоощущения человека.
Tes - Эффективная температура на солнце - температура, которую ощущает человек, с поправкой на солнечный нагрев. Характеристика знойности погоды. Зависит от высоты солнца над горизонтом, облачности и скорости ветра. Ночью, в пасмурную погоду, а также при ветре 12 м/с и более поправка равна нулю.
P - Атмосферное давление - приведенное к уровню моря атмосферное давление.
Po - Атмосферное давление - измеренное на уровне метеостанции атмосферное давление.
Tmin - Минимальная температура - минимум температуры воздуха на высоте 2 м над землей.
Tmax - Максимальная температура - максимум температуры воздуха на высоте 2 м над землей.
R - Количество осадков - Количество выпавших осадков за период времени, мм. При наведении курсора мыши на число - период времени, за который выпало указанное количество осадков.
R24 - Количество осадков - Количество выпавших осадков за 24 часа, мм.
S - Снежный покров - Высота снежного покрова, см. При наведении курсора мыши на число - состояние снежного покрова и степень покрытия местности в баллах.